Temp
3 3 3 3 3 3 3 4 4 4 4 5 5 6 6 6 7 7 6 6 6 6 6 6 6 6 6 6 7 7 7 7 7 8 8 8 8 8 8 8 8 8 8 7 7 7 7 7 7 7 7 7 7 7 7 7 7 7 7 7 7 7 7 7 7 7 7 7 7
2 3 3 3 3 3 3 3 3 4 4 4 5 5 6 6 6 6 6 6 6 6 6 6 5 5 5 6 6 6 6 6 7 7 7 7 7 8 8 8 7 7 7 7 7 7 7 7 7 7 7 7 7 7 7 7 7 7 7 7 7 7 7 7 7 7 7 7 7
2 2 2 2 2 3 3 3 3 3 3 4 4 5 5 6 6 6 6 6 6 6 6 6 6 5 5 5 5 5 5 5 6 7 7 7 7 7 7 7 7 7 7 7 7 7 7 7 7 7 7 7 7 7 7 6 6 6 6 6 6 6 7 7 7 7 7 7 7
2 2 2 2 2 2 2 2 3 3 3 3 4 4 5 5 5 5 5 5 5 6 6 6 6 5 5 4 4 4 4 5 5 6 7 7 7 7 7 7 7 7 7 7 6 6 6 6 6 6 6 6 6 6 6 6 6 6 6 6 6 6 6 6 6 6 6 6 6
2 2 2 2 2 2 2 2 2 2 2 2 3 4 4 5 5 5 5 5 5 5 5 6 6 5 5 4 4 4 4 4 5 6 6 7 7 7 7 7 7 7 6 6 6 6 6 6 6 6 6 6 6 6 6 6 6 6 6 6 6 6 6 6 6 6 6 6 6
1 1 1 1 1 1 1 2 2 2 2 2 2 3 3 4 4 4 4 5 5 5 5 5 6 5 4 4 4 4 4 5 5 5 6 7 7 7 7 6 6 6 6 6 5 5 5 5 5 5 5 5 5 5 6 6 6 6 5 5 5 5 5 5 6 6 6 6 6
1 1 1 1 1 1 1 1 1 2 2 2 2 2 3 3 3 3 3 4 4 5 5 5 5 5 4 3 3 4 4 5 5 5 6 6 6 7 7 7 6 6 6 6 5 5 4 4 4 4 4 4 4 5 5 5 5 5 5 5 5 5 5 5 5 5 5 6 6
1 1 0 0 0 0 0 1 1 1 1 2 2 2 2 3 3 3 3 3 3 4 4 5 5 4 3 3 3 3 4 4 4 4 4 5 5 6 6 6 6 6 6 6 6 5 5 4 4 4 4 5 5 5 5 5 5 5 5 5 5 5 4 5 5 5 5 5 5
0 0 0 0 -0 -0 0 0 1 1 1 1 1 1 1 2 2 2 2 3 3 3 3 4 4 4 4 3 3 3 3 3 3 3 3 4 4 5 5 6 6 6 6 6 6 5 5 5 5 5 5 5 5 5 5 4 4 4 4 4 4 4 4 4 4 4 4 5 5
-0 -0 -0 -0 -1 -1 -0 -0 0 0 1 1 1 1 1 1 2 2 2 2 2 3 3 3 4 4 4 4 3 3 3 3 3 3 2 3 3 4 5 5 5 5 5 6 6 5 5 5 5 5 5 5 5 4 4 4 4 4 4 4 4 4 4 4 4 4 4 4 4
-1 -1 -1 -1 -1 -1 -1 -1 -0 -0 0 0 0 1 1 1 2 2 2 2 2 2 3 3 3 3 4 4 3 3 3 3 3 2 2 2 3 3 4 5 5 5 5 5 6 5 5 5 5 5 5 5 4 4 4 4 4 3 3 3 3 3 3 3 3 3 3 3 3
-1 -1 -2 -2 -2 -1 -1 -1 -1 -1 -0 0 0 0 1 1 1 2 2 2 2 2 2 3 3 3 3 3 3 3 3 3 2 2 2 2 2 3 4 4 5 5 5 5 5 5 5 5 5 5 5 4 4 4 4 3 3 3 3 3 2 2 3 3 3 3 3 3 3
-2 -2 -2 -2 -2 -2 -2 -1 -1 -1 -1 -0 -0 0 0 0 1 1 1 2 2 2 2 2 3 3 3 3 2 2 2 2 2 2 1 2 2 3 3 4 4 5 5 5 5 5 5 5 4 4 4 4 3 3 3 2 2 2 2 2 2 2 2 2 2 2 2 2 3
-2 -3 -3 -3 -2 -2 -2 -2 -2 -2 -1 -1 -1 -0 -0 0 0 1 1 1 1 2 2 2 2 3 3 2 2 2 2 2 2 1 1 1 2 2 3 4 4 4 5 5 5 5 4 4 4 4 3 3 3 2 2 2 2 2 2 2 2 1 1 2 2 2 2 2 2
-3 -3 -3 -3 -3 -3 -2 -2 -2 -2 -2 -1 -1 -1 -0 -0 0 0 0 1 1 1 2 2 2 2 2 2 2 2 2 1 1 1 1 1 2 2 3 3 4 4 4 5 4 4 4 3 3 3 3 2 2 2 2 2 2 2 2 2 2 2 1 1 1 1 1 2 2
-3 -3 -3 -3 -3 -3 -3 -3 -3 -3 -2 -2 -1 -1 -1 -0 -0 0 0 1 1 1 2 2 2 2 2 2 2 2 1 1 1 1 1 1 1 2 2 3 3 4 4 4 4 3 3 3 2 2 2 2 2 2 2 2 2 2 2 2 1 1 1 1 1 1 1 1 1
-4 -4 -4 -4 -4 -4 -3 -3 -3 -3 -3 -2 -2 -1 -1 -1 -1 -0 -0 0 1 1 2 2 2 2 2 1 1 1 1 1 1 1 1 1 1 2 2 2 3 3 4 3 3 3 3 2 2 2 2 2 2 2 2 2 2 2 1 1 1 1 1 1 1 1 1 1 1
-4 -4 -4 -4 -4 -4 -4 -4 -3 -3 -3 -3 -2 -2 -1 -1 -1 -1 -0 -0 0 1 1 1 1 1 0 0 0 0 0 0 0 0 0 1 1 1 2 2 2 3 3 3 3 3 2 2 2 2 1 1 1 1 1 1 1 1 1 1 0 0 0 0 0 0 1 1 1
-4 -4 -4 -4 -4 -4 -4 -4 -4 -3 -3 -3 -3 -2 -2 -2 -1 -1 -1 -1 -0 -0 -0 -0 -0 -1 -1 -1 -1 -1 -0 -0 -0 -0 0 0 1 1 1 1 2 2 2 2 2 2 2 1 1 1 1 1 1 1 1 1 0 0 0 0 0 0 0 0 0 0 0 0 1
-5 -5 -5 -5 -4 -4 -4 -4 -4 -4 -4 -3 -3 -3 -2 -2 -2 -2 -1 -1 -1 -1 -1 -1 -1 -1 -1 -1 -1 -1 -1 -1 -0 -0 -0 0 0 0 1 1 1 2 2 2 2 1 1 0 0 0 0 0 0 0 0 0 0 -0 0 -0 -0 -0 -0 -0 -0 -0 -0 -0 -0
-5 -5 -5 -5 -5 -4 -4 -4 -4 -4 -4 -4 -3 -3 -3 -3 -2 -2 -2 -1 -1 -1 -1 -1 -1 -1 -1 -1 -1 -1 -1 -1 -0 -0 -0 -0 0 0 0 1 1 1 1 1 1 1 0 0 0 0 0 0 0 0 -0 -0 -0 -0 -0 -0 -0 -0 -0 -0 -0 -0 -0 -0 -0
-5 -5 -5 -5 -5 -5 -4 -4 -4 -4 -4 -4 -4 -3 -3 -3 -3 -2 -2 -2 -2 -2 -1 -1 -1 -1 -1 -1 -1 -1 -1 -1 -1 -1 -1 -0 -0 -0 -0 0 0 1 1 0 0 -0 -0 -0 -0 0 0 -0 -0 -0 -0 -0 -0 -0 -0 -0 -0 -0 -0 -0 -1 -1 -1 -1 -0
-5 -5 -5 -5 -5 -5 -5 -4 -4 -4 -4 -4 -4 -3 -3 -3 -3 -3 -2 -2 -2 -2 -2 -2 -2 -1 -1 -1 -1 -1 -1 -1 -1 -1 -1 -1 -1 -1 -1 -0 -0 -0 -0 -0 -0 -0 -0 -0 -0 -0 -0 -1 -1 -1 -1 -1 -0 -0 -0 -1 -1 -1 -1 -1 -1 -1 -1 -1 -1
-5 -5 -5 -5 -5 -5 -5 -5 -4 -4 -4 -4 -4 -3 -3 -3 -3 -3 -2 -2 -2 -2 -2 -2 -2 -2 -2 -1 -1 -1 -1 -1 -1 -1 -1 -1 -1 -1 -1 -1 -1 -1 -1 -1 -1 -1 -1 -1 -1 -1 -1 -1 -1 -1 -1 -1 -1 -1 -1 -1 -1 -1 -1 -1 -1 -1 -1 -1 -1
-5 -5 -5 -5 -5 -5 -5 -5 -5 -4 -4 -4 -4 -3 -3 -3 -3 -3 -2 -2 -2 -2 -2 -2 -2 -2 -2 -2 -2 -2 -2 -2 -1 -1 -1 -1 -1 -1 -1 -1 -1 -2 -2 -2 -1 -1 -1 -1 -1 -1 -1 -1 -1 -1 -1 -1 -1 -1 -2 -2 -2 -2 -1 -1 -2 -2 -2 -2 -1
-5 -5 -5 -5 -5 -5 -5 -5 -5 -5 -4 -4 -4 -3 -3 -3 -3 -3 -3 -2 -2 -2 -2 -2 -2 -2 -2 -2 -2 -2 -2 -2 -2 -2 -2 -2 -1 -1 -1 -2 -2 -2 -2 -2 -2 -2 -2 -2 -2 -2 -2 -2 -2 -2 -2 -2 -2 -2 -2 -2 -2 -2 -2 -2 -2 -2 -2 -2 -2
-5 -5 -5 -5 -5 -5 -5 -5 -5 -5 -4 -4 -4 -4 -3 -3 -3 -3 -3 -3 -3 -3 -3 -3 -2 -3 -3 -3 -3 -3 -2 -2 -2 -2 -2 -2 -2 -2 -2 -2 -2 -2 -3 -2 -2 -2 -2 -2 -2 -2 -2 -2 -2 -2 -2 -2 -2 -2 -2 -2 -2 -2 -2 -2 -2 -2 -2 -2 -2
-6 -6 -5 -5 -5 -5 -5 -5 -5 -5 -5 -4 -4 -4 -4 -4 -4 -3 -3 -3 -3 -3 -3 -3 -3 -3 -3 -3 -3 -3 -3 -2 -2 -2 -2 -2 -2 -2 -2 -3 -3 -3 -3 -3 -3 -3 -3 -3 -3 -3 -3 -3 -3 -3 -2 -3 -3 -3 -3 -3 -3 -3 -3 -3 -3 -3 -3 -3 -3
-6 -6 -6 -5 -5 -5 -5 -5 -5 -5 -5 -5 -4 -4 -4 -4 -4 -4 -4 -4 -3 -3 -3 -3 -3 -3 -3 -3 -3 -3 -3 -3 -3 -3 -3 -3 -3 -3 -3 -3 -3 -4 -4 -4 -4 -4 -4 -4 -4 -3 -3 -3 -3 -3 -3 -3 -3 -3 -3 -3 -3 -3 -3 -3 -3 -3 -3 -3 -3
-6 -6 -6 -6 -6 -6 -6 -6 -5 -5 -5 -5 -5 -4 -4 -4 -4 -4 -4 -4 -4 -3 -3 -4 -4 -4 -3 -3 -3 -3 -3 -3 -3 -3 -3 -3 -4 -4 -4 -4 -4 -4 -4 -4 -4 -4 -4 -4 -4 -4 -4 -4 -3 -3 -3 -3 -3 -3 -3 -3 -3 -4 -4 -4 -4 -4 -4 -4 -4
-6 -6 -6 -6 -6 -6 -6 -6 -6 -5 -5 -5 -5 -5 -4 -4 -4 -4 -4 -4 -4 -4 -4 -4 -4 -4 -4 -4 -3 -4 -4 -4 -4 -3 -4 -4 -4 -4 -4 -5 -5 -5 -5 -5 -4 -4 -4 -5 -5 -5 -4 -4 -4 -4 -4 -4 -4 -4 -4 -4 -4 -4 -4 -4 -4 -4 -4 -4 -4
-6 -6 -6 -6 -6 -6 -6 -6 -6 -6 -5 -5 -5 -5 -5 -4 -4 -5 -5 -5 -5 -5 -4 -4 -4 -4 -4 -4 -4 -4 -4 -4 -4 -4 -4 -4 -4 -4 -5 -5 -5 -5 -5 -5 -5 -5 -5 -5 -5 -5 -5 -5 -5 -4 -4 -4 -4 -4 -4 -4 -4 -4 -4 -4 -4 -5 -5 -5 -5
-7 -7 -7 -7 -7 -6 -6 -6 -6 -6 -6 -5 -5 -5 -5 -5 -5 -5 -5 -5 -5 -5 -5 -5 -5 -5 -4 -4 -4 -4 -4 -5 -5 -5 -5 -5 -5 -5 -5 -5 -5 -5 -5 -5 -5 -5 -5 -5 -5 -5 -5 -5 -5 -5 -5 -5 -5 -5 -5 -4 -4 -4 -4 -4 -4 -5 -5 -5 -5
-7 -7 -7 -7 -7 -7 -6 -6 -6 -6 -6 -6 -5 -5 -5 -5 -5 -5 -5 -5 -5 -5 -5 -5 -5 -5 -5 -5 -5 -5 -5 -5 -6 -6 -6 -6 -6 -5 -5 -5 -6 -6 -6 -6 -6 -6 -6 -5 -6 -6 -6 -6 -6 -6 -6 -6 -6 -6 -6 -5 -5 -5 -5 -5 -5 -5 -5 -6 -6
-7 -7 -7 -7 -7 -7 -7 -6 -6 -6 -6 -6 -6 -5 -5 -5 -5 -5 -5 -5 -5 -5 -5 -5 -5 -5 -5 -6 -6 -6 -6 -6 -6 -6 -7 -7 -7 -7 -7 -6 -6 -6 -6 -6 -6 -6 -6 -6 -6 -6 -6 -6 -6 -6 -6 -6 -6 -7 -7 -6 -6 -6 -6 -6 -6 -6 -6 -6 -6
-7 -7 -7 -7 -7 -7 -7 -7 -6 -6 -6 -6 -6 -6 -6 -5 -5 -5 -5 -5 -5 -5 -5 -5 -5 -5 -6 -6 -6 -6 -6 -6 -6 -7 -7 -7 -7 -7 -7 -7 -7 -7 -7 -7 -7 -7 -6 -6 -6 -6 -7 -7 -7 -6 -6 -7 -7 -7 -7 -7 -7 -7 -7 -7 -7 -7 -7 -7 -7
-8 -7 -7 -7 -7 -7 -7 -7 -7 -7 -7 -7 -6 -6 -6 -6 -6 -6 -6 -6 -6 -6 -6 -6 -6 -6 -6 -6 -6 -6 -6 -6 -6 -7 -7 -7 -7 -7 -7 -7 -7 -7 -7 -7 -7 -7 -7 -6 -6 -7 -7 -7 -7 -7 -7 -7 -7 -7 -7 -7 -7 -8 -8 -7 -7 -7 -7 -7 -7
-8 -8 -8 -8 -8 -7 -7 -7 -7 -7 -7 -7 -7 -7 -7 -6 -6 -6 -6 -6 -6 -6 -6 -6 -6 -6 -6 -6 -6 -6 -6 -6 -6 -7 -7 -7 -7 -7 -7 -7 -7 -7 -7 -7 -6 -7 -7 -7 -7 -7 -7 -7 -7 -7 -7 -7 -7 -7 -7 -7 -8 -8 -8 -8 -8 -8 -8 -8 -8
-8 -8 -8 -8 -8 -8 -8 -8 -8 -7 -7 -7 -7 -7 -7 -7 -7 -6 -6 -6 -6 -6 -6 -6 -6 -6 -7 -7 -7 -6 -6 -6 -7 -7 -7 -7 -7 -7 -7 -7 -7 -7 -7 -7 -7 -7 -7 -7 -6 -7 -7 -7 -7 -7 -7 -7 -7 -7 -7 -8 -8 -8 -8 -8 -8 -8 -8 -8 -8
-8 -8 -8 -8 -8 -8 -8 -8 -8 -8 -8 -8 -8 -8 -7 -7 -7 -7 -7 -7 -6 -6 -6 -6 -6 -6 -7 -7 -7 -7 -7 -7 -7 -7 -7 -7 -7 -7 -7 -7 -7 -7 -7 -7 -7 -7 -7 -7 -6 -7 -7 -7 -8 -7 -7 -7 -7 -8 -8 -8 -8 -8 -8 -8 -8 -8 -8 -8 -8
-8 -8 -9 -9 -9 -9 -9 -9 -9 -8 -8 -8 -8 -8 -8 -8 -7 -7 -7 -7 -7 -6 -6 -6 -6 -6 -7 -7 -7 -7 -7 -7 -7 -7 -7 -8 -8 -8 -8 -8 -7 -7 -7 -7 -7 -7 -7 -7 -6 -7 -7 -8 -8 -8 -8 -8 -8 -8 -8 -8 -8 -8 -8 -8 -8 -8 -8 -8 -9
Height
1455 1453 1452 1451 1449 1447 1446 1443 1442 1441 1440 1439 1439 1438 1438 1437 1436 1435 1434 1433 1433 1433 1434 1434 1434 1434 1434 1434 1434 1434 1434 1434 1434 1434 1434 1434 1434 1435 1436 1436 1437 1438 1438 1438 1439 1439 1439 1439 1439 1439 1440 1440 1441 1442 1442 1442 1443 1443 1444 1444 1444 1445 1445 1445 1446 1446 1447 1447 1447
1453 1452 1451 1449 1448 1446 1444 1442 1440 1439 1438 1437 1437 1436 1436 1435 1434 1433 1432 1431 1431 1431 1432 1432 1433 1433 1433 1433 1433 1432 1432 1432 1432 1432 1432 1433 1433 1433 1434 1434 1435 1436 1437 1437 1437 1438 1438 1437 1437 1438 1438 1439 1440 1441 1441 1442 1442 1442 1442 1442 1443 1443 1443 1444 1444 1445 1445 1446 1446
1452 1450 1449 1447 1446 1444 1442 1441 1439 1437 1436 1435 1434 1434 1434 1433 1432 1431 1430 1429 1428 1428 1429 1430 1431 1432 1432 1433 1433 1432 1431 1431 1431 1431 1431 1431 1432 1432 1432 1433 1434 1434 1435 1436 1436 1436 1437 1436 1436 1437 1437 1438 1439 1439 1440 1440 1441 1441 1441 1441 1441 1442 1442 1442 1443 1443 1444 1444 1444
1450 1449 1447 1445 1444 1442 1441 1439 1437 1436 1434 1433 1432 1432 1431 1431 1431 1429 1428 1427 1426 1426 1426 1427 1428 1430 1431 1432 1432 1432 1432 1431 1431 1431 1431 1431 1431 1431 1432 1432 1432 1433 1433 1434 1434 1434 1435 1435 1435 1435 1436 1437 1437 1438 1439 1439 1439 1439 1439 1440 1440 1440 1440 1441 1441 1442 1442 1442 1442
1448 1447 1445 1443 1442 1440 1439 1437 1436 1434 1432 1431 1430 1429 1429 1429 1429 1427 1426 1424 1424 1424 1424 1424 1425 1427 1428 1429 1430 1431 1431 1431 1431 1431 1431 1430 1430 1430 1430 1431 1431 1432 1432 1432 1433 1433 1433 1434 1434 1435 1435 1436 1437 1437 1438 1438 1438 1438 1438 1438 1438 1438 1439 1439 1439 1440 1440 1441 1441
1447 1445 1443 1442 1440 1438 1437 1436 1434 1433 1431 1429 1428 1427 1427 1427 1427 1426 1424 1422 1422 1422 1422 1421 1422 1424 1426 1427 1428 1429 1430 1430 1430 1430 1430 1429 1428 1428 1429 1429 1430 1430 1431 1432 1432 1432 1432 1433 1433 1434 1434 1435 1436 1437 1437 1437 1437 1437 1437 1437 1437 1437 1437 1437 1437 1438 1438 1439 1439
1445 1443 1442 1440 1438 1436 1435 1433 1432 1431 1429 1428 1426 1425 1425 1425 1424 1424 1423 1422 1420 1419 1419 1419 1419 1421 1423 1425 1427 1427 1428 1428 1429 1429 1428 1427 1427 1427 1427 1427 1428 1429 1429 1430 1430 1431 1431 1432 1432 1432 1433 1434 1435 1435 1435 1436 1435 1435 1435 1435 1435 1435 1435 1435 1436 1436 1437 1437 1437
1444 1442 1440 1438 1436 1434 1433 1431 1430 1428 1427 1426 1424 1423 1423 1422 1422 1422 1421 1421 1420 1418 1417 1417 1417 1418 1421 1422 1424 1425 1425 1425 1426 1426 1427 1427 1426 1426 1425 1426 1426 1427 1427 1427 1428 1429 1429 1430 1431 1431 1432 1432 1433 1433 1433 1433 1433 1433 1433 1433 1433 1433 1433 1433 1434 1434 1434 1435 1435
1442 1440 1438 1436 1434 1432 1431 1429 1427 1426 1425 1423 1422 1421 1421 1420 1420 1419 1419 1419 1418 1418 1417 1416 1415 1416 1417 1419 1420 1421 1421 1422 1422 1423 1424 1425 1425 1425 1425 1425 1425 1425 1425 1425 1426 1427 1428 1428 1429 1430 1430 1430 1431 1431 1431 1431 1431 1431 1431 1431 1431 1431 1431 1432 1432 1432 1432 1433 1433
1440 1438 1436 1434 1432 1430 1428 1427 1425 1424 1422 1421 1420 1419 1418 1418 1417 1417 1417 1417 1416 1416 1415 1414 1414 1414 1414 1416 1417 1418 1418 1419 1420 1421 1422 1423 1424 1424 1424 1424 1424 1424 1423 1423 1424 1425 1426 1427 1427 1428 1428 1428 1428 1428 1428 1428 1428 1428 1428 1429 1429 1429 1429 1430 1430 1431 1431 1431 1432
1438 1436 1434 1432 1430 1428 1426 1424 1423 1422 1420 1419 1418 1417 1416 1415 1415 1414 1414 1414 1414 1413 1413 1412 1412 1412 1412 1413 1414 1415 1416 1417 1418 1419 1420 1422 1422 1423 1423 1423 1422 1422 1422 1422 1422 1423 1424 1425 1426 1426 1426 1426 1426 1426 1426 1426 1426 1426 1427 1427 1427 1427 1427 1428 1428 1429 1429 1430 1430
1437 1434 1432 1430 1428 1426 1424 1422 1421 1419 1418 1417 1416 1414 1413 1413 1412 1412 1411 1411 1411 1411 1411 1411 1410 1410 1410 1410 1411 1412 1413 1414 1415 1417 1418 1420 1420 1421 1421 1421 1421 1421 1420 1420 1421 1421 1422 1423 1423 1424 1424 1424 1424 1424 1424 1424 1424 1424 1425 1425 1425 1425 1426 1426 1427 1427 1427 1428 1428
1435 1433 1431 1429 1427 1425 1422 1421 1419 1417 1416 1415 1414 1412 1411 1410 1410 1409 1409 1408 1408 1408 1409 1409 1408 1407 1407 1408 1409 1410 1411 1412 1413 1415 1416 1417 1418 1419 1419 1419 1419 1419 1419 1419 1419 1419 1420 1421 1421 1422 1422 1422 1422 1423 1423 1423 1423 1423 1423 1423 1423 1423 1424 1424 1425 1425 1426 1426 1427
1433 1432 1429 1427 1425 1423 1421 1419 1417 1416 1415 1414 1412 1411 1410 1408 1407 1407 1407 1406 1406 1406 1407 1407 1407 1406 1405 1406 1406 1407 1408 1410 1411 1412 1414 1415 1416 1417 1417 1417 1417 1417 1417 1417 1417 1417 1418 1419 1419 1420 1420 1420 1421 1421 1421 1421 1421 1421 1421 1421 1421 1422 1422 1422 1423 1423 1424 1424 1425
1432 1430 1428 1426 1424 1422 1420 1418 1417 1415 1414 1413 1412 1410 1409 1407 1406 1405 1405 1405 1404 1404 1405 1405 1404 1404 1403 1403 1404 1405 1406 1407 1409 1410 1412 1413 1414 1414 1414 1414 1414 1415 1415 1416 1416 1416 1417 1417 1418 1418 1418 1418 1419 1419 1419 1419 1419 1419 1419 1419 1419 1419 1420 1421 1421 1422 1422 1422 1423
1431 1429 1427 1425 1423 1421 1419 1417 1416 1414 1413 1412 1411 1409 1408 1407 1405 1404 1404 1403 1403 1403 1403 1402 1402 1402 1401 1402 1402 1402 1403 1405 1406 1408 1409 1410 1411 1411 1412 1412 1412 1413 1413 1414 1414 1415 1415 1416 1416 1416 1417 1417 1417 1417 1417 1417 1417 1417 1417 1417 1418 1418 1419 1419 1420 1421 1421 1421 1421
1430 1428 1426 1424 1422 1421 1419 1417 1415 1414 1412 1411 1410 1408 1407 1406 1405 1403 1403 1402 1402 1401 1401 1400 1400 1399 1399 1400 1400 1400 1400 1402 1403 1405 1407 1407 1408 1409 1409 1410 1411 1411 1412 1412 1412 1413 1413 1414 1414 1415 1415 1415 1415 1415 1415 1415 1416 1416 1416 1417 1417 1417 1418 1419 1419 1420 1420 1420 1420
1429 1427 1426 1424 1422 1420 1418 1417 1415 1413 1412 1411 1409 1408 1407 1405 1404 1403 1402 1401 1401 1400 1399 1399 1399 1398 1398 1398 1399 1398 1399 1399 1401 1403 1404 1405 1406 1407 1407 1408 1409 1410 1410 1410 1411 1411 1411 1412 1413 1414 1414 1414 1414 1414 1414 1414 1415 1415 1416 1416 1417 1417 1417 1418 1418 1419 1419 1419 1419
1429 1427 1425 1424 1422 1420 1418 1417 1415 1413 1411 1410 1409 1407 1406 1405 1404 1402 1402 1401 1400 1400 1399 1399 1398 1398 1398 1399 1399 1399 1399 1399 1400 1401 1402 1403 1404 1405 1406 1407 1407 1407 1408 1408 1409 1409 1410 1411 1412 1412 1412 1413 1413 1413 1413 1414 1414 1414 1415 1415 1416 1416 1417 1417 1417 1417 1418 1418 1418
1429 1427 1425 1424 1422 1420 1418 1417 1415 1413 1411 1410 1408 1407 1406 1405 1403 1402 1402 1401 1400 1400 1399 1399 1399 1399 1399 1400 1400 1400 1400 1401 1401 1401 1401 1402 1402 1403 1404 1405 1405 1406 1406 1406 1407 1408 1409 1410 1410 1411 1411 1412 1412 1412 1412 1413 1413 1413 1414 1414 1415 1415 1416 1416 1416 1416 1417 1417 1417
1429 1427 1426 1424 1422 1421 1419 1417 1415 1413 1412 1410 1408 1407 1406 1405 1403 1402 1402 1401 1400 1400 1400 1400 1400 1400 1400 1400 1401 1401 1402 1402 1401 1401 1401 1401 1402 1402 1402 1403 1404 1404 1404 1405 1406 1407 1408 1408 1409 1410 1411 1411 1412 1412 1412 1412 1412 1413 1413 1414 1414 1414 1415 1415 1415 1415 1415 1416 1416
1429 1427 1426 1424 1422 1421 1419 1417 1415 1413 1412 1410 1409 1407 1406 1405 1404 1403 1402 1401 1400 1400 1400 1400 1401 1401 1401 1401 1402 1402 1402 1402 1401 1401 1401 1401 1401 1401 1401 1402 1402 1402 1403 1404 1405 1406 1407 1408 1409 1409 1410 1411 1411 1411 1411 1411 1412 1412 1412 1413 1413 1413 1414 1414 1414 1414 1414 1414 1414
1429 1428 1426 1424 1423 1421 1419 1417 1416 1414 1412 1411 1409 1408 1407 1405 1404 1403 1402 1402 1401 1401 1401 1401 1401 1401 1401 1402 1402 1402 1402 1402 1401 1401 1401 1401 1400 1400 1400 1400 1401 1401 1402 1403 1404 1405 1407 1407 1408 1409 1410 1410 1410 1411 1411 1411 1411 1411 1412 1412 1412 1412 1413 1413 1413 1413 1413 1413 1414
1430 1428 1427 1425 1423 1421 1419 1417 1416 1414 1412 1411 1410 1408 1407 1406 1405 1404 1403 1402 1402 1402 1401 1401 1401 1401 1401 1401 1401 1401 1401 1401 1401 1402 1401 1401 1400 1400 1400 1400 1400 1400 1401 1402 1404 1405 1406 1407 1407 1408 1409 1409 1410 1410 1410 1410 1410 1410 1411 1411 1411 1412 1412 1412 1412 1412 1413 1413 1413
1430 1429 1427 1425 1423 1422 1420 1418 1416 1414 1413 1412 1410 1409 1408 1407 1406 1405 1404 1403 1403 1402 1402 1402 1402 1401 1401 1401 1400 1400 1401 1401 1401 1402 1401 1401 1400 1400 1400 1400 1400 1400 1401 1402 1404 1405 1406 1407 1407 1408 1408 1409 1409 1409 1409 1409 1410 1410 1410 1411 1411 1411 1412 1412 1412 1412 1412 1412 1412
1431 1429 1427 1426 1424 1422 1421 1419 1417 1415 1414 1412 1411 1410 1408 1407 1407 1406 1405 1404 1404 1403 1403 1403 1402 1402 1401 1401 1401 1401 1401 1401 1402 1402 1402 1401 1401 1401 1401 1400 1401 1401 1402 1403 1404 1405 1406 1406 1407 1408 1408 1408 1409 1409 1409 1409 1409 1410 1410 1410 1410 1411 1411 1411 1411 1411 1412 1412 1412
1431 1429 1428 1426 1425 1423 1421 1419 1417 1416 1414 1413 1412 1411 1409 1408 1408 1407 1406 1405 1405 1404 1404 1403 1403 1402 1402 1402 1402 1402 1402 1402 1402 1402 1402 1402 1401 1401 1401 1401 1401 1402 1402 1403 1404 1404 1405 1406 1407 1407 1408 1408 1408 1408 1408 1409 1409 1409 1409 1410 1410 1410 1410 1411 1411 1411 1411 1411 1411
1432 1430 1428 1427 1425 1424 1422 1420 1418 1417 1415 1414 1413 1412 1410 1410 1409 1408 1407 1407 1406 1405 1405 1404 1404 1403 1403 1403 1403 1403 1403 1403 1403 1403 1402 1402 1402 1402 1402 1402 1402 1402 1403 1404 1404 1405 1406 1406 1407 1407 1407 1408 1408 1408 1408 1408 1408 1408 1409 1409 1409 1410 1410 1410 1411 1411 1411 1411 1411
1432 1431 1429 1427 1426 1424 1423 1421 1419 1418 1417 1415 1414 1413 1412 1411 1410 1409 1408 1408 1407 1406 1406 1405 1405 1404 1404 1404 1404 1404 1404 1404 1404 1403 1403 1403 1403 1403 1403 1403 1403 1403 1404 1404 1405 1405 1406 1407 1407 1407 1407 1407 1407 1407 1408 1408 1408 1408 1408 1408 1408 1409 1409 1410 1410 1410 1411 1411 1411
1433 1431 1430 1428 1427 1425 1424 1422 1421 1419 1418 1417 1415 1414 1413 1412 1411 1410 1409 1409 1409 1408 1407 1407 1406 1406 1405 1406 1405 1405 1404 1404 1404 1403 1403 1403 1404 1404 1404 1404 1404 1404 1405 1405 1406 1406 1406 1407 1407 1407 1407 1407 1407 1407 1407 1407 1407 1407 1407 1408 1408 1408 1408 1409 1409 1410 1410 1410 1411
1433 1432 1430 1429 1427 1426 1425 1423 1422 1420 1419 1417 1416 1415 1414 1414 1413 1412 1411 1410 1410 1410 1409 1408 1407 1407 1407 1407 1407 1406 1405 1404 1404 1404 1404 1403 1404 1404 1405 1405 1405 1405 1406 1406 1406 1407 1407 1407 1407 1407 1407 1407 1407 1407 1407 1407 1407 1407 1407 1407 1407 1407 1408 1408 1408 1409 1409 1410 1410
1434 1432 1431 1429 1428 1427 1425 1424 1422 1421 1420 1419 1417 1417 1416 1415 1415 1413 1412 1412 1411 1411 1410 1409 1408 1408 1407 1407 1407 1407 1406 1406 1405 1405 1405 1405 1405 1405 1405 1405 1406 1406 1407 1407 1407 1407 1407 1407 1408 1408 1408 1408 1408 1408 1408 1407 1407 1407 1407 1407 1407 1407 1407 1407 1408 1408 1408 1409 1409
1435 1433 1432 1430 1429 1427 1426 1425 1423 1422 1421 1420 1419 1418 1417 1417 1416 1415 1414 1413 1412 1412 1412 1411 1410 1409 1408 1408 1408 1407 1407 1406 1406 1406 1406 1406 1406 1406 1406 1406 1406 1407 1407 1407 1407 1407 1407 1408 1408 1408 1408 1408 1408 1408 1408 1407 1407 1407 1407 1407 1407 1407 1407 1407 1407 1407 1407 1408 1408
1435 1434 1432 1431 1430 1428 1427 1426 1424 1423 1422 1421 1420 1419 1418 1417 1417 1416 1415 1414 1413 1413 1412 1412 1411 1410 1410 1409 1409 1408 1407 1407 1407 1407 1407 1407 1407 1407 1407 1407 1407 1407 1408 1408 1408 1408 1408 1408 1408 1408 1408 1408 1408 1408 1408 1408 1407 1406 1406 1406 1406 1406 1406 1406 1406 1406 1407 1407 1408
1436 1434 1433 1432 1430 1429 1428 1427 1425 1424 1423 1422 1421 1420 1419 1419 1418 1417 1416 1415 1414 1414 1413 1412 1412 1411 1411 1410 1410 1409 1409 1409 1408 1408 1407 1407 1407 1407 1407 1407 1407 1408 1408 1408 1408 1408 1408 1408 1408 1408 1408 1408 1408 1408 1408 1407 1407 1406 1405 1405 1405 1405 1405 1405 1405 1406 1406 1407 1407
1436 1435 1434 1432 1431 1430 1428 1427 1426 1425 1423 1422 1422 1421 1420 1419 1419 1418 1417 1416 1415 1415 1414 1414 1413 1412 1412 1411 1411 1410 1410 1410 1409 1409 1409 1408 1408 1407 1407 1407 1407 1407 1408 1408 1408 1409 1409 1409 1408 1408 1408 1408 1408 1408 1407 1407 1407 1406 1405 1405 1405 1404 1404 1404 1405 1405 1405 1406 1407
1437 1435 1434 1433 1432 1431 1429 1428 1427 1426 1424 1423 1422 1422 1421 1420 1420 1418 1417 1417 1416 1416 1415 1415 1414 1413 1413 1412 1412 1411 1411 1410 1410 1410 1410 1409 1409 1409 1408 1408 1407 1407 1408 1408 1409 1409 1409 1410 1409 1409 1408 1408 1408 1407 1407 1407 1406 1406 1406 1405 1405 1404 1404 1404 1404 1405 1405 1405 1406
1437 1436 1435 1433 1432 1431 1430 1429 1427 1427 1426 1424 1423 1422 1422 1421 1420 1419 1418 1418 1417 1416 1416 1415 1415 1414 1413 1413 1412 1412 1411 1411 1411 1410 1410 1410 1410 1409 1409 1409 1408 1408 1408 1409 1409 1409 1409 1410 1409 1409 1408 1408 1407 1407 1407 1406 1406 1406 1406 1406 1405 1405 1405 1404 1405 1405 1405 1406 1407
1437 1436 1435 1434 1433 1432 1430 1429 1428 1427 1426 1425 1424 1423 1422 1421 1421 1420 1419 1418 1418 1417 1417 1416 1415 1415 1414 1413 1412 1412 1412 1411 1411 1411 1411 1410 1410 1410 1410 1410 1409 1409 1409 1409 1409 1409 1409 1409 1409 1408 1408 1407 1407 1407 1406 1406 1406 1406 1406 1406 1406 1406 1405 1405 1405 1405 1406 1406 1407
1438 1437 1436 1434 1433 1432 1431 1429 1428 1427 1427 1426 1425 1423 1422 1422 1421 1420 1420 1419 1418 1418 1417 1417 1416 1415 1414 1413 1413 1412 1412 1412 1411 1411 1411 1411 1411 1411 1411 1411 1410 1410 1410 1409 1409 1409 1409 1409 1409 1408 1407 1407 1406 1406 1406 1406 1406 1406 1406 1406 1406 1406 1406 1406 1406 1406 1406 1407 1407
1438 1437 1436 1435 1433 1432 1431 1430 1429 1428 1427 1426 1425 1424 1423 1422 1421 1421 1420 1419 1419 1418 1417 1417 1416 1415 1415 1414 1413 1413 1412 1412 1412 1412 1412 1412 1411 1411 1411 1411 1411 1411 1410 1410 1409 1409 1409 1409 1408 1407 1406 1406 1406 1406 1406 1405 1406 1406 1406 1406 1406 1407 1407 1407 1407 1407 1406 1406 1406
Wind_Speed
33 32 32 31 32 32 34 35 35 34 30 27 27 28 29 29 28 27 26 25 24 23 21 20 18 17 16 14 14 17 20 20 20 20 19 20 20 21 21 21 21 20 19 18 17 17 16 16 16 16 16 16 16 15 15 16 16 17 17 18 18 18 17 17 17 17 17 17 17
34 33 33 32 32 32 33 34 36 36 33 28 26 26 27 28 28 27 28 29 29 29 26 23 20 17 14 11 9 11 14 17 19 20 20 20 21 21 21 21 21 20 19 18 17 17 16 16 17 17 17 17 17 16 16 17 17 17 18 18 18 18 18 19 18 18 18 18 18
35 35 35 34 33 32 32 33 34 36 35 31 27 25 26 27 28 28 28 30 32 33 32 29 25 21 18 15 13 10 10 11 15 17 19 20 20 20 20 20 19 18 17 16 15 14 14 14 15 16 17 17 17 17 17 17 17 17 17 18 18 19 19 19 19 19 19 18 18
37 37 36 35 34 32 32 32 33 35 36 34 30 26 25 26 27 28 28 29 30 33 35 34 32 27 23 21 20 19 16 14 16 18 19 19 19 18 18 17 17 16 15 14 14 13 12 12 13 14 14 15 15 16 16 16 17 17 17 18 18 19 19 19 19 19 19 19 18
39 38 37 35 33 32 31 31 32 34 35 35 32 28 26 25 25 26 27 27 26 28 32 34 34 31 26 23 22 22 22 21 21 22 23 22 21 20 19 19 19 19 19 19 18 17 16 15 16 16 17 17 17 16 17 17 17 17 17 17 18 19 19 19 19 19 19 19 19
40 38 36 34 32 31 31 31 32 32 33 33 33 30 27 25 23 23 24 25 26 27 29 30 30 27 23 20 22 24 25 24 24 24 24 24 24 23 22 22 21 21 21 21 20 18 18 17 17 18 18 19 20 20 20 19 19 19 18 17 18 18 19 20 20 20 20 20 19
39 37 35 33 31 31 30 30 30 30 30 31 32 31 29 26 23 21 20 21 23 25 25 26 24 20 16 14 16 18 20 21 20 19 18 19 20 22 24 24 24 24 23 22 21 19 17 17 17 18 19 20 22 22 22 21 21 21 20 19 19 19 19 20 21 21 21 21 21
38 36 34 32 31 30 29 29 29 29 29 29 30 30 29 28 26 24 21 19 19 20 21 22 21 19 17 15 15 16 17 18 18 17 17 17 18 19 21 22 22 22 21 20 20 19 18 17 18 19 20 21 22 22 22 22 21 21 20 20 19 19 19 19 21 21 22 22 22
37 35 34 33 31 30 29 29 29 29 28 28 29 29 28 28 29 29 27 25 22 20 20 21 22 23 22 22 21 20 21 20 19 18 18 19 19 19 19 19 18 18 18 18 18 18 18 18 18 19 20 21 21 21 21 21 21 20 20 20 20 19 19 19 19 20 21 22 22
36 35 35 34 32 31 30 29 29 29 29 29 29 29 29 28 28 30 31 32 30 28 26 25 25 26 27 28 27 25 24 23 20 19 19 20 21 20 19 18 17 16 16 17 18 19 19 19 19 19 19 19 19 20 20 20 20 20 20 20 20 20 19 19 19 18 18 19 19
35 35 35 34 33 32 30 29 29 30 30 30 30 30 29 28 28 28 30 33 34 33 32 31 31 31 31 31 30 28 26 24 21 20 20 21 22 22 21 19 17 16 15 16 18 19 19 19 19 18 18 18 18 18 18 18 18 18 18 18 19 19 19 20 20 19 18 18 17
34 34 35 35 34 32 30 29 29 29 30 30 30 29 28 27 28 28 28 29 32 33 33 34 35 35 33 32 31 29 27 25 23 22 22 23 24 24 22 20 18 17 16 16 16 17 17 17 17 16 16 16 16 16 15 15 14 13 13 13 14 15 17 18 19 19 19 19 18
34 34 34 35 34 33 31 29 28 28 29 29 29 28 27 27 27 27 28 28 28 29 31 33 35 36 36 34 33 31 28 26 25 24 23 24 24 24 23 22 21 19 18 16 15 15 14 14 14 14 13 13 14 13 12 11 10 9 9 9 10 11 12 14 15 17 18 18 19
33 33 33 34 34 33 31 29 28 27 27 27 27 27 27 27 27 27 27 27 27 28 29 30 32 35 37 37 35 33 31 28 27 25 25 24 24 23 23 23 23 22 20 18 15 13 11 11 11 11 11 11 11 11 10 10 10 10 10 10 10 10 11 12 12 13 14 15 16
32 32 33 33 33 32 31 29 28 27 26 24 24 24 24 25 25 26 26 26 26 27 27 27 30 33 36 36 36 35 33 29 28 26 25 25 24 23 22 22 22 22 21 18 14 11 10 9 9 10 10 11 11 11 11 10 11 12 12 12 12 12 12 12 12 12 12 12 13
31 31 32 32 32 32 31 30 28 26 25 23 22 21 21 21 22 22 23 24 25 26 26 24 26 29 32 33 35 35 34 30 27 26 24 24 23 22 22 21 21 21 19 17 13 10 10 10 11 12 12 11 11 11 12 12 12 12 13 13 13 13 13 13 12 12 12 11 12
31 31 31 31 31 31 30 29 28 26 25 23 22 20 19 19 19 19 18 19 20 22 23 23 23 24 26 27 29 30 31 30 27 24 23 23 22 22 21 20 20 19 18 15 13 13 14 14 14 14 13 12 12 12 12 12 12 12 12 12 12 13 13 13 12 12 12 12 13
30 30 30 30 30 30 29 28 27 26 24 23 22 20 19 18 18 17 16 16 16 17 18 19 20 19 19 19 21 23 25 26 25 24 23 23 22 21 20 20 19 18 16 15 14 15 16 17 16 14 13 13 13 12 12 11 11 10 10 10 11 11 12 12 12 13 13 14 14
30 30 30 29 29 28 28 27 26 25 24 23 22 20 19 18 18 18 17 15 14 13 12 12 12 12 12 13 14 16 18 20 21 21 22 22 20 19 18 18 17 16 15 15 13 14 14 14 13 13 12 12 12 11 11 10 9 8 8 9 9 9 10 10 11 12 13 15 15
29 29 29 28 28 28 27 27 26 25 23 22 21 20 19 18 18 18 17 16 14 12 10 8 8 8 9 10 11 12 13 15 16 18 18 18 17 15 15 15 14 14 15 16 15 13 12 11 11 11 12 12 11 10 9 9 8 8 9 9 8 8 7 7 7 8 10 12 14
28 28 28 27 27 27 27 26 26 24 23 21 20 19 17 16 15 15 15 15 14 12 10 9 8 8 9 10 11 11 11 12 14 15 15 14 13 13 13 13 13 13 15 15 13 11 10 11 11 12 11 11 10 9 8 8 9 9 9 9 8 7 6 5 4 5 6 8 10
27 27 26 26 26 27 27 26 25 23 22 20 19 18 16 14 12 11 10 10 9 8 7 7 7 7 8 8 9 10 10 11 13 13 12 11 11 12 12 12 12 12 12 10 9 9 10 11 11 11 10 8 7 7 7 7 8 8 8 8 7 6 5 4 5 5 6 7 8
26 26 26 26 26 26 26 25 24 22 20 19 18 17 15 13 11 8 6 5 3 2 2 2 3 4 4 5 7 8 9 9 10 9 9 9 10 11 11 11 11 10 10 11 11 11 11 10 10 9 7 6 5 4 5 5 6 6 6 6 5 5 5 5 6 6 6 6 6
24 24 25 25 26 26 25 24 22 21 19 18 17 16 15 13 11 8 6 5 4 2 2 1 2 2 3 4 5 7 8 8 7 6 7 8 10 11 10 10 10 10 11 12 12 11 10 8 8 7 6 4 3 3 3 3 3 3 3 3 3 4 4 5 5 5 5 5 5
23 23 24 25 26 25 24 23 22 20 18 18 17 16 14 12 11 9 8 8 6 5 4 4 5 6 7 8 7 7 8 7 6 5 6 8 10 10 10 9 8 8 9 9 9 9 9 8 7 6 4 4 3 3 3 2 2 2 2 2 2 2 2 3 3 3 3 4 5
22 22 23 25 25 24 23 23 22 20 18 17 16 15 14 14 13 11 10 9 8 7 6 6 7 8 9 10 9 9 8 7 7 7 7 9 10 10 9 8 7 7 6 7 7 8 8 7 6 5 4 3 3 3 3 3 3 3 2 2 1 1 1 2 2 2 2 2 2
21 21 22 24 24 23 22 22 22 20 18 17 17 17 16 16 15 13 11 10 8 8 8 8 8 8 8 8 8 8 7 7 9 11 11 11 11 11 10 9 8 7 7 6 6 6 6 6 5 4 3 3 3 4 4 4 4 4 3 2 2 2 2 3 3 4 4 5 5
20 21 22 23 23 23 22 22 22 21 19 18 18 18 18 18 16 14 12 11 10 9 10 10 9 9 8 8 7 6 5 6 10 14 15 14 12 11 11 11 11 11 11 10 7 6 5 4 4 3 3 3 3 3 4 3 3 2 2 2 2 2 2 3 4 5 6 7 8
20 21 22 23 23 22 22 21 22 21 20 18 18 19 20 19 16 14 13 13 11 10 11 10 10 11 10 8 5 4 5 6 8 11 13 13 11 11 11 12 12 12 11 10 7 6 4 4 3 2 1 1 2 2 2 2 2 2 3 3 4 4 4 5 5 6 7 8 9
21 22 23 23 23 22 21 20 20 21 20 19 18 19 20 19 17 15 14 14 12 10 10 9 9 10 10 8 7 10 13 14 13 12 12 12 13 13 13 12 10 9 8 7 6 5 5 4 4 3 2 2 2 2 3 3 4 5 5 6 7 8 8 8 9 9 9 9 10
23 23 23 23 23 21 20 18 18 19 20 19 18 18 19 19 17 16 15 15 14 11 9 8 8 9 8 7 8 12 15 17 18 19 19 19 19 17 16 14 11 9 7 6 5 5 4 5 5 5 5 5 5 5 6 6 6 7 7 8 9 10 11 11 11 11 10 9 8
23 23 23 22 22 21 19 17 17 18 19 19 18 17 17 18 17 16 16 15 15 13 11 9 9 8 7 4 4 6 10 13 15 16 17 18 18 18 17 16 14 12 9 6 5 4 4 4 5 6 6 6 6 7 7 8 8 8 9 10 10 11 12 12 12 11 10 8 6
23 22 22 21 21 20 19 16 16 17 19 19 17 16 16 15 15 14 14 14 14 14 13 12 11 10 9 6 5 6 8 9 10 10 10 10 11 11 11 12 12 11 9 7 7 6 6 6 6 7 6 6 6 6 6 7 7 8 9 10 11 11 12 12 12 11 9 7 4
22 21 20 19 20 20 19 17 16 17 18 18 17 16 14 13 13 12 12 13 13 13 14 14 14 13 12 10 10 10 11 12 13 13 12 10 8 7 6 6 7 8 8 8 8 8 8 9 9 8 7 6 5 4 4 3 4 5 7 8 9 9 10 10 10 9 7 4 4
22 20 19 18 18 19 19 19 18 17 17 18 18 17 15 13 12 11 10 10 10 11 12 13 14 14 14 13 13 13 13 13 14 14 14 14 13 12 11 10 9 9 10 10 9 9 9 10 10 9 8 6 5 4 3 2 1 2 4 5 7 7 8 7 7 6 3 2 6
22 20 19 18 18 18 19 19 19 18 17 18 18 18 16 14 12 10 9 7 7 8 9 10 11 12 13 13 13 13 13 12 12 12 12 12 12 12 13 13 13 12 12 11 10 8 8 8 8 8 7 6 5 4 3 3 2 0 2 4 5 6 7 7 7 5 3 2 6
22 21 20 19 18 18 18 19 19 18 17 17 17 17 17 15 13 10 9 8 7 8 8 9 10 11 11 11 12 12 12 12 12 11 10 10 10 10 11 13 14 14 14 12 9 7 6 6 6 6 6 6 4 3 3 3 3 2 2 3 5 6 7 7 8 7 6 4 4
22 21 21 20 20 19 19 19 19 19 18 16 16 16 16 15 14 12 10 10 10 9 10 10 10 10 10 10 10 10 11 12 12 12 12 12 11 11 11 12 13 14 14 12 9 7 5 5 5 6 5 5 3 3 3 3 3 3 4 5 5 6 6 6 8 9 9 9 6
21 21 21 21 21 21 20 20 19 19 18 17 16 16 15 15 14 13 12 10 10 10 10 9 9 9 8 8 8 9 10 11 12 13 13 13 13 12 11 11 12 12 12 10 7 6 6 6 5 4 2 2 3 3 2 2 2 4 5 6 6 6 5 5 7 8 10 11 9
19 19 20 21 21 22 21 20 20 19 18 17 17 16 15 14 14 14 13 11 10 9 9 8 8 7 6 6 7 8 9 10 12 13 13 13 13 12 11 10 11 11 10 8 6 5 6 7 4 1 3 4 3 2 0 0 1 3 6 7 7 6 5 5 6 7 8 8 7
18 18 19 20 21 21 21 21 20 19 18 17 17 16 15 14 13 14 13 11 9 9 8 8 7 6 6 6 6 8 9 11 12 12 12 12 12 11 11 11 11 11 9 7 5 6 7 8 5 3 5 4 2 1 2 3 1 4 7 8 7 6 5 5 6 5 5 4 4
Wind_Direction
325 324 323 321 318 316 313 311 311 309 304 295 289 284 279 273 266 260 257 256 258 259 260 260 264 273 279 270 249 237 233 231 229 229 230 232 233 235 237 238 240 242 243 243 244 246 248 251 254 256 256 256 255 254 254 254 253 253 254 254 255 256 256 255 254 253 253 253 253
324 324 322 320 317 314 312 309 308 308 305 298 290 285 281 275 268 263 259 256 254 254 255 255 257 264 272 271 245 221 215 216 219 223 228 230 233 235 236 236 237 238 240 241 243 247 251 255 258 259 258 256 255 253 253 253 253 253 253 253 253 254 254 255 255 255 254 255 255
324 323 322 320 318 315 311 308 306 305 304 300 292 286 282 278 272 267 262 259 257 255 254 255 256 258 263 267 264 250 228 212 217 226 232 235 236 237 237 236 235 235 237 241 245 250 255 259 262 263 262 260 258 256 255 255 255 255 255 255 254 254 254 254 254 255 256 256 256
324 323 322 321 319 316 312 308 304 303 303 301 295 287 283 281 275 269 264 261 259 257 256 255 255 257 259 262 265 265 260 252 250 251 252 249 246 245 244 243 243 244 247 250 255 260 264 267 269 272 273 272 268 264 261 259 259 260 260 260 259 257 256 256 256 256 257 257 258
324 324 323 321 319 316 312 309 305 302 301 301 297 290 284 282 277 270 263 260 258 257 256 255 255 257 259 259 260 260 260 259 258 259 260 259 258 256 255 255 255 256 257 258 260 262 263 263 266 271 277 280 280 275 270 266 264 264 264 264 264 262 261 260 259 259 259 259 259
324 323 322 321 319 316 313 310 306 303 300 299 297 292 284 280 277 269 262 260 260 259 258 256 255 255 255 256 256 255 254 253 254 255 256 256 256 255 254 254 254 254 255 254 254 255 255 257 259 263 267 270 273 274 273 269 267 265 264 263 263 264 264 264 263 263 262 261 260
323 323 322 320 318 315 313 310 307 303 300 297 296 292 286 278 274 267 261 260 260 259 257 255 250 243 238 240 244 245 245 246 248 250 251 250 249 250 250 250 250 250 249 249 249 249 251 254 257 260 262 264 267 268 269 268 267 265 264 262 261 262 263 264 265 265 264 263 262
323 322 321 319 317 314 312 308 305 302 298 295 293 291 287 279 272 266 261 256 254 252 248 244 237 226 218 219 225 232 237 243 250 254 256 253 250 248 246 245 243 241 241 242 244 247 250 254 256 258 260 261 263 264 264 264 264 263 262 261 260 259 260 262 264 265 265 264 263
323 323 323 321 318 314 310 306 303 300 297 294 291 289 287 282 275 270 266 260 253 247 240 234 228 222 219 220 226 234 239 243 249 253 254 255 254 251 248 244 240 237 235 237 242 245 249 252 255 258 259 260 261 261 262 261 261 260 259 258 256 255 255 256 259 261 263 263 263
324 324 325 323 320 315 310 304 301 299 297 295 292 289 286 283 278 273 268 264 259 253 246 240 234 230 228 228 232 236 239 240 243 246 249 252 255 254 251 247 243 239 238 239 241 244 246 249 253 258 261 262 262 262 262 262 260 259 257 256 254 252 251 251 251 252 255 257 259
325 326 326 325 322 318 312 306 302 300 298 298 296 293 288 283 279 275 269 263 259 254 250 248 245 241 237 235 235 236 237 237 239 242 246 249 254 255 254 249 244 241 239 238 239 240 242 245 249 255 260 262 264 266 266 266 264 262 260 258 255 252 250 249 247 246 246 246 248
327 328 328 327 325 322 318 312 307 303 302 302 302 300 294 285 280 278 275 268 260 254 250 250 249 247 243 239 236 235 235 236 237 241 245 249 252 253 253 250 245 241 238 237 236 236 238 242 247 253 258 262 266 269 270 271 269 267 263 260 257 254 252 251 249 248 246 244 243
329 329 329 328 328 327 324 320 315 311 309 308 308 306 301 292 284 279 278 277 270 262 254 251 250 249 247 243 238 236 235 236 237 239 243 246 249 250 251 249 247 243 240 238 238 238 240 244 249 254 259 262 266 268 269 267 263 259 255 253 252 251 251 252 252 251 250 248 246
331 331 330 330 330 331 330 328 324 320 316 313 310 307 303 298 291 284 280 277 276 271 264 255 250 249 248 244 240 237 236 237 237 238 241 244 246 247 246 245 244 242 240 239 239 242 247 252 256 259 261 262 262 259 255 249 246 243 241 238 238 239 241 244 246 248 248 247 245
333 333 332 332 333 333 333 332 329 325 319 313 308 304 300 297 293 288 283 279 276 273 267 257 249 246 244 241 238 235 235 235 235 237 239 242 243 241 239 237 237 237 238 238 240 246 255 263 266 267 265 260 254 247 242 238 237 238 237 236 236 237 239 240 241 240 239 238 237
336 336 336 336 336 336 336 335 332 327 319 312 305 300 297 294 290 286 281 276 272 268 261 252 245 241 237 234 231 230 229 229 230 233 235 236 235 233 230 230 232 234 236 239 245 258 269 275 277 274 266 254 246 240 237 236 238 240 240 240 241 242 242 241 241 240 238 236 233
339 339 340 339 339 338 337 336 334 328 320 312 304 299 295 291 287 283 278 271 265 259 253 247 242 237 232 228 226 224 224 224 224 225 227 228 226 224 225 227 230 233 237 243 254 266 273 274 273 268 259 246 240 238 239 241 245 248 249 248 248 247 246 244 243 241 239 238 235
343 343 343 342 341 340 339 338 335 331 324 315 308 301 296 291 287 283 279 272 263 254 248 244 243 242 238 231 225 221 219 218 217 218 219 220 219 219 222 226 229 233 239 248 258 267 271 269 263 255 247 240 236 238 242 248 254 258 258 256 253 251 251 249 247 244 242 243 241
346 346 346 345 343 342 341 340 338 334 329 321 314 307 301 296 290 286 281 276 267 256 246 242 243 244 240 231 223 217 214 212 210 210 211 213 214 216 219 224 229 235 243 251 257 263 265 260 250 240 233 230 231 235 241 249 255 255 252 248 248 252 256 257 255 250 246 245 247
349 348 347 346 345 343 342 342 340 338 334 329 322 316 309 303 297 291 286 279 271 261 249 239 236 235 229 220 212 206 202 201 200 201 202 205 208 212 218 223 230 240 250 257 259 255 246 236 227 223 222 223 226 230 234 240 242 240 238 240 249 260 267 267 262 253 247 245 247
350 349 348 347 346 345 344 343 341 340 338 335 331 325 318 311 303 296 289 280 271 262 251 241 235 230 222 211 201 194 192 193 193 194 194 196 201 208 215 222 232 243 253 257 254 241 223 214 215 217 219 222 223 224 226 229 234 238 244 253 266 275 275 265 255 249 247 246 247
351 349 348 347 347 346 345 344 343 341 340 339 337 334 329 322 313 303 293 282 270 257 247 240 234 228 218 206 195 191 192 193 191 189 188 188 192 201 211 219 229 237 238 229 213 203 203 207 211 215 218 219 220 222 227 233 241 249 259 270 277 277 267 252 247 249 251 252 250
351 350 349 348 348 347 347 346 344 344 343 343 343 341 338 333 328 321 314 304 288 263 240 233 224 218 209 202 196 192 187 182 178 173 172 174 178 184 193 204 211 210 198 181 180 188 197 203 209 213 216 218 224 234 244 250 254 261 268 273 273 263 251 244 243 245 245 243 238
352 351 350 350 350 350 350 349 348 348 348 349 348 347 345 343 343 347 353 358 3 11 32 80 133 138 141 151 163 166 162 154 146 143 150 160 164 167 173 180 182 176 170 171 181 192 202 207 212 218 225 235 251 265 273 274 270 265 259 253 244 236 231 230 228 224 220 214 203
353 352 352 352 353 354 355 354 354 353 354 354 355 355 356 359 2 8 15 19 23 31 49 78 101 109 109 110 116 122 126 125 122 124 136 149 156 158 158 156 154 154 159 171 184 196 205 213 219 224 234 250 270 280 282 274 256 234 219 211 214 219 225 225 223 218 209 201 191
355 354 353 355 357 359 360 359 357 357 357 359 2 7 13 16 17 18 21 27 36 48 64 84 98 99 95 91 90 92 99 109 114 116 122 136 147 152 152 149 145 145 152 167 182 192 199 204 207 211 220 237 253 259 258 251 244 238 232 236 252 281 299 307 310 301 289 269 246
356 355 355 356 359 2 2 0 358 358 360 3 10 18 24 24 21 19 21 30 47 65 75 80 81 76 68 65 69 74 82 92 99 102 110 122 133 138 139 135 133 131 133 143 163 176 181 181 181 184 195 212 232 243 249 254 258 259 262 272 289 307 322 329 331 331 328 323 317
357 356 355 357 360 1 1 360 360 0 1 5 14 23 28 26 21 17 20 29 50 71 76 68 57 45 36 36 50 68 82 88 93 97 102 110 116 119 119 117 114 108 102 102 119 138 147 147 150 159 175 201 225 240 251 260 270 278 292 312 323 332 334 335 332 330 329 328 326
358 356 356 357 359 360 360 1 3 4 5 7 16 25 29 26 19 14 16 26 46 68 75 65 50 39 35 38 62 108 133 133 116 107 105 105 106 106 106 106 104 99 92 89 96 106 111 110 111 120 147 200 235 252 265 281 301 323 337 345 346 344 342 338 334 329 326 324 323
358 357 357 358 359 360 1 3 8 10 10 10 17 25 29 27 18 12 12 20 33 54 72 72 59 48 45 53 88 111 117 119 121 121 118 112 105 99 95 93 91 87 82 80 82 85 85 77 65 52 36 10 346 331 323 319 322 326 330 333 334 334 334 332 330 327 324 320 318
358 359 360 0 1 1 2 5 11 14 14 14 17 22 27 27 20 12 9 14 20 30 49 67 69 63 57 60 83 94 96 97 102 106 107 106 104 99 92 84 75 67 63 64 67 69 67 57 44 30 17 5 355 347 341 334 328 325 325 325 326 326 326 326 325 324 321 316 313
359 1 2 4 4 3 3 5 9 14 17 18 18 20 23 27 25 17 10 10 12 16 24 41 58 68 70 66 65 69 74 79 83 88 93 96 98 97 93 86 76 65 54 47 43 40 35 28 21 14 8 0 354 350 344 338 331 324 320 317 317 318 318 318 318 317 315 310 301
0 3 6 7 6 4 3 2 4 10 16 20 20 18 19 25 30 25 15 10 9 11 15 22 34 47 56 56 39 30 33 40 44 52 61 73 82 86 86 83 75 64 51 35 24 16 7 358 356 356 356 356 356 356 353 345 334 325 318 314 312 311 310 310 310 310 308 301 274
1 4 7 9 8 6 3 0 359 4 12 18 20 18 16 22 34 37 26 12 8 8 9 11 18 26 32 35 33 31 30 30 30 31 31 31 30 29 33 40 43 41 34 23 15 8 0 353 349 350 355 2 11 21 26 14 348 330 322 317 315 313 312 311 309 309 305 284 212
1 3 5 7 7 5 3 0 358 360 6 13 17 16 15 19 36 46 40 19 7 6 7 7 10 13 18 22 26 29 32 34 35 36 36 33 27 22 18 16 16 18 20 20 16 10 3 356 353 355 3 14 27 46 70 89 54 334 325 323 325 327 328 328 328 328 322 228 187
1 1 2 2 3 2 1 360 359 359 1 7 11 12 12 16 31 48 52 33 16 12 12 10 9 11 13 16 18 22 25 29 31 34 34 32 27 21 16 11 9 9 12 16 19 17 8 360 355 356 1 9 23 49 85 113 122 59 343 342 345 348 351 354 360 9 27 138 179
1 1 359 358 358 358 358 357 358 358 358 359 3 6 9 12 22 39 54 53 45 36 30 23 19 17 15 13 10 9 9 9 11 12 12 12 10 8 3 359 355 355 357 3 10 17 16 4 349 341 342 352 14 53 94 117 125 111 64 34 23 16 13 11 17 29 48 86 149
1 0 359 357 356 355 354 354 354 355 354 353 354 358 4 9 15 25 38 48 49 44 38 33 30 27 22 15 7 0 356 353 354 355 355 353 350 349 348 348 345 345 348 353 0 12 16 3 341 329 331 351 27 74 109 130 131 117 93 71 54 43 33 25 25 37 55 73 86
2 1 360 358 356 354 352 351 351 351 350 348 346 348 355 4 9 13 19 26 32 32 31 30 31 30 27 19 10 2 356 351 350 351 350 348 344 342 343 345 346 346 348 355 4 18 20 6 345 327 337 38 77 100 126 146 140 121 104 89 74 64 54 44 38 47 61 74 77
1 1 359 358 355 353 351 349 349 348 348 346 343 342 346 354 2 5 7 10 14 16 17 19 23 26 26 21 14 8 2 356 354 353 351 348 345 344 347 351 353 354 357 4 20 33 30 15 3 54 131 113 112 118 153 275 139 123 111 96 82 72 67 63 57 60 71 84 91
356 356 355 354 353 351 349 348 347 347 348 348 345 340 339 344 354 359 0 360 360 360 0 5 12 17 21 18 12 7 2 358 355 354 353 351 349 349 353 358 2 4 7 16 39 50 41 29 40 92 122 115 104 30 332 337 36 120 114 97 82 75 76 77 76 78 88 108 126